Regional Weather Roundup
Issued by NWS

Home | Current Version | Previous Version | Text Only | Print | Product List | Glossary Off
Versions: 1 2 3 4 5 6 7 8 9 10 11 12 13 14 15 16 17 18 19 20 21 22 23 24 25 26 27

000
ASUS45 KBOI 211410
RWRID

IDAHO REGIONAL WEATHER ROUNDUP
NATIONAL WEATHER SERVICE BOISE ID
700 AM MST TUE FEB 21 2017

NOTE: "FAIR" INDICATES FEW OR NO CLOUDS BELOW 12000 FEET
WITH NO SIGNIFICANT WEATHER AND/OR OBSTRUCTIONS TO VISIBILITY

IDZ012-014-211500-
SOUTHWEST IDAHO


CITY           SKY/WX    TMP DP  RH WIND       PRES   REMARKS
BOISE          CLEAR     45  36  70 SE14      29.83S
CALDWELL       CLEAR     51  34  52 S17G24    29.79F
MOUNTAIN HOME  CLEAR     42  42 100 S12       29.86S
$$

IDZ016-017-211500-
SOUTHCENTRAL IDAHO


CITY           SKY/WX    TMP DP  RH WIND       PRES   REMARKS
BURLEY         CLOUDY    47  35  63 VRB5      29.91R
JEROME           N/A    N/A N/A N/A MISG      29.92R
TWIN FALLS     PTCLDY    43  33  68 SW14      29.91R
$$

IDZ019>023-211500-
SOUTHEAST IDAHO


CITY           SKY/WX    TMP DP  RH WIND       PRES   REMARKS
IDAHO FALLS    LGT RAIN  39  37  92 SW15      29.90S WCI  31
POCATELLO      CLOUDY    47  36  65 S24G35    29.90S
REXBURG        LGT RAIN  40  36  86 SW18      29.90R WCI  31
$$

IDZ006-010-011-018-031-032-211500-
CENTRAL IDAHO MOUNTAINS


CITY           SKY/WX    TMP DP  RH WIND       PRES   REMARKS
MCCALL         LGT RAIN  36  31  82 S18       29.71S WCI  26
HAILEY         CLOUDY    39  37  93 S12       29.93R WCI  32
STANLEY          N/A     37  26  64 VRB7      29.81R WCI  32
SALMON         CLOUDY    36  34  93 NW8       29.72R WCI  29
CHALLIS        CLOUDY    40  31  70 S10       29.77R WCI  33
$$

IDZ002-004-006-007-026-211500-
NORTHERN IDAHO


CITY           SKY/WX    TMP DP  RH WIND       PRES   REMARKS
LEWISTON       LGT RAIN  41  39  93 S6        29.63S
LOWELL           N/A     35  33  92 N6        29.69F WCI  30
COEUR D`ALENE  LGT RAIN  33  32  96 NE10      29.65S WCI  25
MULLAN PASS    LGT SNOW  26  26 100 SE7       29.56F VSB 3/4 WCI  18
$$




USA.gov is the U.S. government's official web portal to all federal, state and local government web resources and services.